M0HPP-13 Weather Reports


Display with metric or nautical units.
time (UTC)temp
F
wind
direction
speed
MPH
gust
MPH
rain 1hr
in
rain 24hr
in
rain mn
in
humidity
%
barometer
mb
20260508235529 36 299 1.0 3.0 0.00 0.00 0.00 90 1021.7
20260508234529 37 41 1.0 3.0 0.00 0.00 0.00 89 1021.6
20260508233529 37 104 2.0 4.0 0.00 0.00 0.00 89 1021.5
20260508232529 37 70 1.0 3.0 0.00 0.00 0.00 89 1021.4
20260508231529 36 261 1.0 4.0 0.00 0.00 0.00 90 1021.4
20260508230529 36 126 0.0 2.0 0.00 0.00 0.00 88 1021.3
20260508225529 37 299 0.0 2.0 0.00 0.00 0.00 86 1021.4
20260508224529 38 110 0.0 2.0 0.00 0.00 0.00 85 1021.3
20260508223529 39 97 0.0 4.0 0.00 0.00 0.00 84 1021.2
20260508222529 39 290 1.0 5.0 0.00 0.00 0.00 85 1021.1
20260508221529 39 273 2.0 5.0 0.00 0.00 0.00 84 1021.0
20260508220529 40 282 1.0 5.0 0.00 0.00 0.00 83 1020.9
20260508215529 40 256 2.0 5.0 0.00 0.00 0.00 82 1020.9
20260508214529 40 293 1.0 6.0 0.00 0.00 0.00 82 1020.7
20260508213529 41 286 2.0 7.0 0.00 0.00 0.00 80 1020.5
20260508212529 41 277 3.0 7.0 0.00 0.00 0.00 79 1020.4
20260508211529 41 296 3.0 9.0 0.00 0.00 0.00 78 1020.2
20260508210529 41 285 3.0 9.0 0.00 0.00 0.00 77 1020.1
20260508205529 42 288 3.0 7.0 0.00 0.00 0.00 76 1020.1
20260508204529 42 299 3.0 7.0 0.00 0.00 0.00 75 1020.0